When you browse on this site, cookies collect data to enhance your experience and personalize the content and advertising you see.
Visit our Privacy Policy to learn more. By continuing to use the site, you agree to this use of cookies and data.
  • In Belgien
  • Länderverzeichnis
  • Für 7 Tage
  • Wassertemperatur
  • Wetterkarte
  • Widgets
  • user-avatar
    Anmelden

    Stündliche Wetter Siempang

    Heute, 21 November, Donnerstag

    Zeit Temperatur Niederschläge Wind Luftdruck Luftfeuchtigkeit
    00:00 +21°C° 0 mm 0 m/S 753 mmHg 87%
    01:00 +20°C° 0 mm 0 m/S 753 mmHg 89%
    02:00 +20°C° 0 mm 0 m/S 753 mmHg 90%
    03:00 +20°C° 0 mm 0 m/S 753 mmHg 90%
    04:00 +19°C° 0 mm 0 m/S 753 mmHg 91%
    05:00 +20°C° 0 mm 0 m/S 753 mmHg 89%
    06:00 +20°C° 0 mm 0 m/S 753 mmHg 88%
    07:00 +22°C° 0 mm 1 m/S 754 mmHg 86%
    08:00 +25°C° 0 mm 1 m/S 754 mmHg 75%
    09:00 +28°C° 0 mm 1 m/S 754 mmHg 64%
    10:00 +31°C° 0 mm 1 m/S 754 mmHg 54%
    11:00 +30°C° 0 mm 0 m/S 753 mmHg 50%
    12:00 +31°C° 0 mm 0 m/S 753 mmHg 46%
    13:00 +32°C° 0 mm 0 m/S 752 mmHg 42%
    14:00 +31°C° 0 mm 0 m/S 752 mmHg 47%
    15:00 +32°C° 0 mm 1 m/S 751 mmHg 52%
    16:00 +31°C° 0 mm 1 m/S 751 mmHg 57%
    17:00 +30°C° 0 mm 1 m/S 751 mmHg 61%
    18:00 +28°C° 0 mm 1 m/S 752 mmHg 64%
    19:00 +27°C° 0 mm 1 m/S 752 mmHg 68%
    20:00 +24°C° 0 mm 0 m/S 753 mmHg 73%
    21:00 +23°C° 0 mm 0 m/S 753 mmHg 78%
    22:00 +22°C° 0 mm 0 m/S 754 mmHg 83%
    23:00 +22°C° 0 mm 0 m/S 753 mmHg 84%

    Morgen, 22 November, Freitag

    Zeit Temperatur Niederschläge Wind Luftdruck Luftfeuchtigkeit
    00:00 +21°C° 0 mm 0 m/S 753 mmHg 86%
    01:00 +21°C° 0 mm 0 m/S 753 mmHg 88%
    02:00 +20°C° 0 mm 0 m/S 753 mmHg 88%
    03:00 +20°C° 0 mm 0 m/S 753 mmHg 89%
    04:00 +21°C° 0 mm 1 m/S 753 mmHg 90%
    05:00 +20°C° 0 mm 0 m/S 753 mmHg 88%
    06:00 +20°C° 0 mm 0 m/S 754 mmHg 87%
    07:00 +20°C° 0 mm 0 m/S 754 mmHg 86%
    08:00 +23°C° 0 mm 0 m/S 754 mmHg 75%
    09:00 +26°C° 0 mm 0 m/S 754 mmHg 65%
    10:00 +29°C° 0 mm 0 m/S 754 mmHg 55%
    11:00 +30°C° 0 mm 0 m/S 753 mmHg 51%
    12:00 +31°C° 0 mm 0 m/S 752 mmHg 47%
    13:00 +32°C° 0 mm 0 m/S 752 mmHg 43%
    14:00 +32°C° 0 mm 0 m/S 751 mmHg 47%
    15:00 +31°C° 0 mm 0 m/S 751 mmHg 50%
    16:00 +30°C° 0 mm 0 m/S 750 mmHg 53%
    17:00 +28°C° 0 mm 0 m/S 751 mmHg 61%
    18:00 +26°C° 0 mm 0 m/S 751 mmHg 68%
    19:00 +24°C° 0 mm 0 m/S 752 mmHg 75%
    20:00 +25°C° 0 mm 1 m/S 752 mmHg 78%
    21:00 +24°C° 0 mm 1 m/S 753 mmHg 80%
    22:00 +24°C° 0 mm 1 m/S 753 mmHg 83%
    23:00 +23°C° 0 mm 1 m/S 753 mmHg 86%

    übermorgen, 23 November, Samstag

    Zeit Temperatur Niederschläge Wind Luftdruck Luftfeuchtigkeit
    00:00 +23°C° 0 mm 1 m/S 753 mmHg 88%
    01:00 +22°C° 0 mm 1 m/S 753 mmHg 90%
    02:00 +20°C° 0 mm 0 m/S 753 mmHg 92%
    03:00 +19°C° 0 mm 0 m/S 752 mmHg 95%
    04:00 +19°C° 0 mm 0 m/S 752 mmHg 97%
    05:00 +19°C° 0 mm 0 m/S 753 mmHg 94%
    06:00 +20°C° 0 mm 0 m/S 753 mmHg 92%
    07:00 +20°C° 0 mm 0 m/S 753 mmHg 89%
    08:00 +23°C° 0 mm 0 m/S 754 mmHg 78%
    09:00 +26°C° 0 mm 0 m/S 754 mmHg 67%
    10:00 +29°C° 0 mm 0 m/S 754 mmHg 57%
    11:00 +30°C° 0 mm 0 m/S 753 mmHg 52%
    12:00 +33°C° 0 mm 1 m/S 752 mmHg 47%
    13:00 +34°C° 0 mm 1 m/S 751 mmHg 42%
    14:00 +33°C° 0 mm 1 m/S 751 mmHg 45%
    15:00 +33°C° 0 mm 1 m/S 751 mmHg 48%
    16:00 +32°C° 0 mm 1 m/S 750 mmHg 52%
    17:00 +30°C° 0 mm 1 m/S 751 mmHg 59%
    18:00 +25°C° 0 mm 0 m/S 751 mmHg 66%
    19:00 +23°C° 0 mm 0 m/S 752 mmHg 74%
    20:00 +23°C° 0 mm 0 m/S 752 mmHg 76%
    21:00 +24°C° 0 mm 1 m/S 753 mmHg 78%
    22:00 +24°C° 0 mm 1 m/S 753 mmHg 81%
    23:00 +21°C° 0 mm 0 m/S 753 mmHg 83%

    24 November, Sonntag

    Zeit Temperatur Niederschläge Wind Luftdruck Luftfeuchtigkeit
    00:00 +21°C° 0 mm 0 m/S 753 mmHg 85%
    01:00 +20°C° 0 mm 0 m/S 752 mmHg 87%
    02:00 +20°C° 0 mm 0 m/S 752 mmHg 88%
    03:00 +20°C° 0 mm 0 m/S 752 mmHg 89%
    04:00 +20°C° 0 mm 0 m/S 752 mmHg 90%
    05:00 +20°C° 0 mm 0 m/S 752 mmHg 88%
    06:00 +20°C° 0 mm 0 m/S 753 mmHg 86%
    07:00 +21°C° 0 mm 0 m/S 753 mmHg 84%
    08:00 +24°C° 0 mm 0 m/S 753 mmHg 74%
    09:00 +27°C° 0 mm 0 m/S 753 mmHg 63%
    10:00 +30°C° 0 mm 0 m/S 753 mmHg 53%
    11:00 +31°C° 0 mm 0 m/S 753 mmHg 50%
    12:00 +34°C° 0 mm 1 m/S 752 mmHg 46%
    13:00 +35°C° 0 mm 1 m/S 751 mmHg 43%
    14:00 +34°C° 0 mm 1 m/S 751 mmHg 46%
    15:00 +33°C° 0 mm 1 m/S 750 mmHg 49%
    16:00 +33°C° 0 mm 1 m/S 750 mmHg 53%
    17:00 +30°C° 0 mm 1 m/S 751 mmHg 59%
    18:00 +28°C° 0 mm 1 m/S 751 mmHg 65%
    19:00 +26°C° 0 mm 1 m/S 752 mmHg 71%
    20:00 +24°C° 0 mm 0 m/S 752 mmHg 74%
    21:00 +23°C° 0 mm 0 m/S 753 mmHg 78%
    22:00 +23°C° 0 mm 0 m/S 753 mmHg 81%
    23:00 +22°C° 0 mm 0 m/S 753 mmHg 84%

    25 November, Montag

    Zeit Temperatur Niederschläge Wind Luftdruck Luftfeuchtigkeit
    00:00 +22°C° 0 mm 0 m/S 753 mmHg 86%
    01:00 +21°C° 0 mm 0 m/S 752 mmHg 88%
    02:00 +21°C° 0 mm 0 m/S 752 mmHg 89%
    03:00 +21°C° 0 mm 0 m/S 752 mmHg 90%
    04:00 +20°C° 0 mm 0 m/S 752 mmHg 91%
    05:00 +21°C° 0 mm 0 m/S 753 mmHg 89%
    06:00 +21°C° 0 mm 0 m/S 753 mmHg 87%
    07:00 +24°C° 0 mm 1 m/S 753 mmHg 85%
    08:00 +27°C° 0 mm 1 m/S 754 mmHg 75%
    09:00 +29°C° 0 mm 1 m/S 754 mmHg 64%
    10:00 +32°C° 0 mm 1 m/S 754 mmHg 54%
    11:00 +33°C° 0 mm 1 m/S 753 mmHg 52%
    12:00 +33°C° 0 mm 1 m/S 752 mmHg 49%
    13:00 +34°C° 0 mm 1 m/S 751 mmHg 47%
    14:00 +33°C° 0 mm 1 m/S 751 mmHg 52%
    15:00 +30°C° 0 mm 0 m/S 751 mmHg 56%
    16:00 +29°C° 0 mm 0 m/S 750 mmHg 61%
    17:00 +28°C° 0 mm 0 m/S 751 mmHg 62%
    18:00 +30°C° 0 mm 1 m/S 752 mmHg 64%
    19:00 +29°C° 0 mm 1 m/S 752 mmHg 65%
    20:00 +28°C° 0 mm 1 m/S 752 mmHg 68%
    21:00 +27°C° 0 mm 1 m/S 753 mmHg 71%
    22:00 +26°C° 0 mm 1 m/S 753 mmHg 73%
    23:00 +25°C° 0 mm 1 m/S 753 mmHg 76%

    26 November, Dienstag

    Zeit Temperatur Niederschläge Wind Luftdruck Luftfeuchtigkeit
    00:00 +23°C° 0 mm 0 m/S 752 mmHg 80%
    01:00 +22°C° 0 mm 0 m/S 752 mmHg 83%
    02:00 +22°C° 0 mm 0 m/S 752 mmHg 84%
    03:00 +22°C° 0 mm 0 m/S 752 mmHg 85%
    04:00 +23°C° 0 mm 1 m/S 752 mmHg 86%
    05:00 +24°C° 0 mm 1 m/S 752 mmHg 86%
    06:00 +22°C° 0 mm 0 m/S 752 mmHg 85%
    07:00 +22°C° 0 mm 0 m/S 753 mmHg 85%
    08:00 +25°C° 0 mm 0 m/S 753 mmHg 75%
    09:00 +28°C° 0 mm 0 m/S 753 mmHg 65%
    10:00 +31°C° 0 mm 0 m/S 753 mmHg 56%
    11:00 +31°C° 0 mm 0 m/S 752 mmHg 53%
    12:00 +34°C° 0 mm 1 m/S 751 mmHg 51%
    13:00 +35°C° 0 mm 1 m/S 751 mmHg 48%
    14:00 +34°C° 0 mm 1 m/S 750 mmHg 53%
    15:00 +31°C° 0 mm 0 m/S 750 mmHg 59%
    16:00 +30°C° 0 mm 0 m/S 750 mmHg 64%
    17:00 +31°C° 0 mm 1 m/S 750 mmHg 67%
    18:00 +30°C° 0 mm 1 m/S 751 mmHg 69%
    19:00 +28°C° 0 mm 1 m/S 751 mmHg 72%
    20:00 +27°C° 0 mm 1 m/S 752 mmHg 74%
    21:00 +26°C° 0 mm 1 m/S 752 mmHg 77%
    22:00 +23°C° 0 mm 0 m/S 753 mmHg 80%
    23:00 +23°C° 0 mm 0 m/S 752 mmHg 81%
    Mehr zeigen